[TLELIST] Archives

 

[list_settings.list_name] Current TLEs

October 10th 2009 PST

HST 1 20580U 90037B 09279.89851369 +.00000375 +00000-0 +15956-4 0 04585 2 20580 028.4687 093.2015 0003125 031.7239 328.3580 15.00837150866658 ISS (ZARYA) 1 25544U 98067A 09282.02174966 .00010879 00000-0 76660-4 0 7505 2 25544 051.6386 082.3493 0008018 176.5282 280.6914 15.74684483623885 CXO 1 25867U 99040B 09282.83333333 .00000359 00000-0 10000-3 0 3793 2 25867 065.9654 064.8722 7726445 275.4144 356.8459 00.37797355 5445 ____________________________________________________________________ These 2-Line ...Continue Reading

[list_settings.list_name] Current TLEs

October 9th 2009 PST

HST 1 20580U 90037B 09277.97004897 +.00000342 +00000-0 +13410-4 0 04574 2 20580 028.4689 105.7860 0003156 010.5954 349.4728 15.00836144866368 ISS (ZARYA) 1 25544U 98067A 09281.49694155 .00010916 00000-0 72549-4 0 7450 2 25544 051.6384 085.0482 0008663 176.6355 183.5234 15.74670930623809 CXO 1 25867U 99040B 09280.20833333 +.00000417 +00000-0 +10000-3 0 03781 2 25867 065.9552 064.9721 7723275 275.4568 359.4104 00.37802428005433 ____________________________________________________________________ These 2-Line ...Continue Reading

[list_settings.list_name] Current TLEs

October 8th 2009 PST

HST 1 20580U 90037B 09277.97004897 +.00000342 +00000-0 +13410-4 0 04574 2 20580 028.4689 105.7860 0003156 010.5954 349.4728 15.00836144866368 ISS (ZARYA) 1 25544U 98067A 09280.05486269 .00010354 00000-0 73314-4 0 7374 2 25544 051.6383 092.4595 0008103 169.2111 290.6293 15.74637858623573 CXO 1 25867U 99040B 09280.20833333 +.00000417 +00000-0 +10000-3 0 03781 2 25867 065.9552 064.9721 7723275 275.4568 359.4104 00.37802428005433 ____________________________________________________________________ These 2-Line ...Continue Reading

[list_settings.list_name] Current TLEs

October 7th 2009 PST

HST 1 20580U 90037B 09275.97508299 +.00000339 +00000-0 +13169-4 0 04563 2 20580 028.4693 118.8061 0003176 348.2253 011.8217 15.00835414866065 ISS (ZARYA) 1 25544U 98067A 09278.98261466 .00010045 00000-0 71334-4 0 7325 2 25544 051.6381 097.9708 0008205 164.9351 332.5971 15.74613009623401 CXO 1 25867U 99040B 09277.58333333 +.00000467 +00000-0 +10000-3 0 03777 2 25867 065.9378 065.1020 7721945 275.4561 002.0596 00.37808121005420 ____________________________________________________________________ These 2-Line ...Continue Reading

[list_settings.list_name] Current TLEs

October 6th 2009 PST

HST 1 20580U 90037B 09275.97508299 +.00000339 +00000-0 +13169-4 0 04563 2 20580 028.4693 118.8061 0003176 348.2253 011.8217 15.00835414866065 ISS (ZARYA) 1 25544U 98067A 09278.08696957 .00010350 00000-0 73422-4 0 7276 2 25544 051.6384 102.5735 0008201 162.2667 294.8123 15.74594910623266 CXO 1 25867U 99040B 09277.58333333 +.00000467 +00000-0 +10000-3 0 03777 2 25867 065.9378 065.1020 7721945 275.4561 002.0596 00.37808121005420 ____________________________________________________________________ These 2-Line ...Continue Reading

[list_settings.list_name] Current TLEs

October 5th 2009 PST

HST 1 20580U 90037B 09274.04661681 +.00000355 +00000-0 +14455-4 0 04551 2 20580 028.4694 131.3913 0003158 324.6201 035.4206 15.00834940865773 ISS (ZARYA) 1 25544U 98067A 09277.13586965 .00011232 00000-0 79355-4 0 7202 2 25544 051.6385 107.4614 0008300 158.6221 303.5152 15.74577544623110 CXO 1 25867U 99040B 09274.91666667 +.00000397 +00000-0 +10000-3 0 03761 2 25867 065.9246 065.2101 7718727 275.4461 359.0927 00.37807686005415 ____________________________________________________________________ These 2-Line ...Continue Reading

[list_settings.list_name] Current TLEs

October 3rd 2009 PST

HST 1 20580U 90037B 09274.04661681 +.00000355 +00000-0 +14455-4 0 04551 2 20580 028.4694 131.3913 0003158 324.6201 035.4206 15.00834940865773 ISS (ZARYA) 1 25544U 98067A 09276.06406637 .00011835 00000-0 83457-4 0 7151 2 25544 051.6385 112.9705 0008384 154.8282 347.7703 15.74554526622946 CXO 1 25867U 99040B 09274.91666667 +.00000397 +00000-0 +10000-3 0 03761 2 25867 065.9246 065.2101 7718727 275.4461 359.0927 00.37807686005415 ____________________________________________________________________ These 2-Line ...Continue Reading

[list_settings.list_name] Current TLEs

October 2nd 2009 PST

HST 1 20580U 90037B 09272.11815026 +.00000343 +00000-0 +13470-4 0 04543 2 20580 028.4692 143.9754 0003175 304.5197 055.5135 15.00834089865489 ISS (ZARYA) 1 25544U 98067A 09275.16831178 .00012276 00000-0 86477-4 0 7091 2 25544 051.6387 117.5728 0008489 151.8571 309.8654 15.74533958622803 CXO 1 25867U 99040B 09274.91666667 +.00000397 +00000-0 +10000-3 0 03761 2 25867 065.9246 065.2101 7718727 275.4461 359.0927 00.37807686005415 ____________________________________________________________________ These 2-Line ...Continue Reading

[list_settings.list_name] Current TLEs

October 1st 2009 PST

HST 1 20580U 90037B 09272.11815026 +.00000343 +00000-0 +13470-4 0 04543 2 20580 028.4692 143.9754 0003175 304.5197 055.5135 15.00834089865489 ISS (ZARYA) 1 25544U 98067A 09274.15188778 .00012894 00000-0 90693-4 0 7046 2 25544 051.6388 122.7965 0008624 148.3536 308.1179 15.74510192622649 CXO 1 25867U 99040B 09272.29166667 +.00000243 +00000-0 +10000-3 0 03754 2 25867 065.9107 065.2904 7715019 275.4442 001.7860 00.37806197005404 ____________________________________________________________________ These 2-Line ...Continue Reading

[list_settings.list_name] Current TLEs

September 30th 2009 PST

HST 1 20580U 90037B 09269.05920251 +.00000353 +00000-0 +14278-4 0 04536 2 20580 028.4691 163.9391 0003234 273.0904 086.9357 15.00833006865021 ISS (ZARYA) 1 25544U 98067A 09273.30582176 .00012731 00000-0 89680-4 0 6988 2 25544 051.6385 127.1449 0008797 145.2320 192.3385 15.74487077622502 CXO 1 25867U 99040B 09272.29166667 +.00000243 +00000-0 +10000-3 0 03754 2 25867 065.9107 065.2904 7715019 275.4442 001.7860 00.37806197005404 ____________________________________________________________________ These 2-Line ...Continue Reading
  • This mailing list is a public mailing list - anyone may join or leave, at any time.
  • This mailing list is announce-only.

International Space Station (ISS) / Hubble Space Telescope (HST) / Chandra X-Ray Observatory Orbital Data via EMAIL

Privacy Policy:

Private list